Location: Jackson Park
(37.2862°N, 79.9123°W)
Time: 20:42:53
(UTC+00:00)

Vanguard 3 - Pass Details

Date: 13 May 2026
Orbit: 507 x 3205 km, 33.4° (Epoch: 31 May)

Event Time Altitude Azimuth Distance (km) Brightness Sun altitude
Rises 16:55:02 0° 208° (SSW) 6,140 11.8 70.7°
Reaches altitude 10° 16:59:17 10° 200° (SSW) 5,440 11.7 70.9°
Maximum altitude 17:14:17 36° 141° (SE) 4,281 11.7 71.2°
Drops below altitude 10° 17:30:30 10° 84° (E) 5,918 11.6 71.0°
Sets 17:35:17 0° 77° (ENE) 6,723 11.7 70.8°
